SCP
2 1 1 1 1 1 0 0 0 0 0 1 1 1 1 1 1 1 1 1 1 1 1 1 1 2 2 2 2 2 4 4 6 10 11 9 6 4 3 2 2 1 1 1 1 1 1 1 1
2 1 1 1 1 1 0 0 0 0 1 1 1 1 0 1 1 1 1 1 1 1 1 1 2 2 2 1 2 2 4 5 7 10 11 9 7 5 3 2 2 1 1 1 1 1 2 1 1
2 2 1 1 1 1 0 0 0 0 1 1 1 1 0 0 1 1 1 1 1 1 1 2 3 2 2 1 1 2 4 6 9 12 12 10 7 5 3 2 2 1 1 1 1 2 2 1 1
2 2 2 2 1 1 0 0 0 1 1 1 1 1 0 0 1 1 1 1 1 1 1 2 3 2 2 1 1 3 4 7 10 12 12 9 7 5 3 2 2 1 1 1 1 2 2 2 1
2 2 2 2 1 1 0 0 1 1 1 1 1 1 0 0 1 1 1 1 1 1 1 2 2 2 2 2 2 3 6 9 11 12 11 9 6 4 3 2 2 2 1 1 1 2 2 2 1
2 3 3 2 1 0 0 0 1 1 1 1 1 1 0 0 1 1 2 2 1 1 1 1 2 2 3 3 4 5 7 9 11 11 10 8 6 4 3 2 2 2 2 1 1 2 2 1 1
3 3 3 2 0 0 0 0 1 1 1 1 1 1 1 1 1 1 2 2 1 1 1 1 1 2 3 4 6 7 7 8 9 9 8 7 5 4 3 3 2 2 2 2 2 1 1 1 1
3 3 3 1 0 0 0 0 1 1 2 1 1 1 1 1 1 1 2 2 1 1 1 1 1 1 2 3 5 6 6 6 6 6 6 5 4 3 3 3 3 3 3 3 3 2 2 1 1
2 2 2 1 0 0 0 1 1 2 2 2 1 1 1 1 1 2 2 2 2 2 1 1 1 1 1 1 3 3 4 4 4 4 3 3 2 2 2 3 3 3 4 4 4 3 3 2 2
2 2 2 1 1 0 0 1 1 2 2 1 1 1 1 1 2 2 3 3 3 2 2 1 1 1 1 1 1 1 2 2 2 2 2 2 2 2 2 3 4 4 4 4 4 4 3 3 2
1 2 2 1 1 0 0 0 1 1 2 1 1 1 1 1 2 3 3 4 3 3 2 1 1 1 1 0 1 1 1 1 1 1 1 2 2 2 2 2 3 4 4 4 3 3 3 3 2
1 1 1 1 1 1 1 0 1 1 2 2 1 1 1 1 2 2 3 3 3 3 2 1 1 1 1 1 1 1 1 2 2 2 2 2 2 2 2 2 2 2 3 3 3 3 2 2 2
1 1 1 1 1 1 1 1 1 1 2 2 1 1 1 1 2 2 2 2 2 2 2 2 2 2 1 1 1 1 1 2 2 2 2 2 1 2 2 1 1 1 2 2 2 2 2 1 1
1 1 1 1 1 1 1 1 1 2 2 2 2 1 1 1 2 2 2 2 2 2 1 2 3 2 1 1 1 1 1 2 2 2 2 1 1 1 1 1 1 1 1 2 2 2 1 1 1
1 1 1 1 1 1 0 1 1 2 2 2 2 2 2 2 2 2 3 2 2 2 2 3 3 2 1 1 1 1 2 2 3 2 2 1 1 1 1 1 1 1 1 1 1 1 1 1 1
0 0 0 0 1 1 0 0 1 2 3 2 2 2 3 3 3 2 2 2 2 3 4 4 4 3 2 1 1 2 2 2 2 2 1 1 1 1 1 1 1 1 1 1 1 1 1 1 1
0 0 0 0 0 1 0 1 1 2 3 3 4 4 4 4 3 3 3 2 3 4 6 6 5 3 2 1 1 2 2 2 1 1 1 1 1 1 1 1 1 1 1 1 1 1 1 1 1
0 0 0 0 0 1 1 1 2 2 3 4 5 6 6 5 5 4 3 3 4 6 8 7 5 3 2 1 1 2 1 1 1 1 1 1 1 1 1 1 1 1 1 1 1 1 1 1 1
1 1 0 0 0 1 1 2 3 3 4 5 6 6 6 6 6 5 5 5 5 7 8 6 4 3 2 2 2 2 1 1 1 1 1 1 1 1 1 1 2 2 2 2 2 2 1 1 1
1 0 0 0 0 1 2 3 3 3 4 4 5 6 6 6 6 7 6 6 6 6 6 6 5 4 3 3 2 2 2 1 1 1 1 1 1 1 1 2 3 3 3 3 2 2 2 2 1
0 0 0 0 0 1 1 2 3 3 3 3 4 5 5 4 5 6 7 7 6 6 6 6 6 6 5 4 3 2 2 1 1 1 1 1 1 1 1 2 3 3 3 3 3 2 2 2 2
0 0 0 0 0 0 1 1 2 3 3 3 3 4 3 4 5 6 8 8 7 6 7 7 7 7 6 5 4 3 2 1 1 1 1 1 1 1 1 1 2 2 3 3 3 3 3 2 2
0 0 0 0 0 0 1 1 2 3 3 3 3 3 3 3 5 7 8 8 7 7 8 8 8 8 7 5 4 3 2 2 1 1 1 1 1 1 1 1 1 2 2 3 3 3 3 3 3
0 0 0 0 0 0 0 0 1 3 3 3 2 2 2 3 5 6 7 7 8 8 9 9 9 8 8 6 5 4 3 2 2 1 1 1 1 2 2 2 2 2 2 3 3 3 4 4 3
0 0 0 0 0 0 0 0 1 1 2 3 3 3 3 3 4 5 6 6 8 9 11 11 9 9 9 8 6 5 3 2 2 2 2 2 2 2 2 2 2 2 2 3 3 3 3 3 3
0 0 0 0 0 0 0 0 1 1 3 4 4 4 3 3 4 5 5 6 7 10 12 12 10 9 10 9 7 6 4 3 2 2 2 2 3 3 3 2 2 2 2 2 3 3 3 2 2
0 0 0 0 0 0 0 1 1 3 4 5 6 6 5 4 5 5 5 5 7 10 13 13 10 9 10 10 9 6 5 3 3 3 3 3 3 3 2 2 2 2 2 2 2 2 2 2 2
0 0 0 0 0 0 0 1 2 3 5 6 6 7 7 7 6 6 5 4 6 9 12 12 10 10 10 11 9 7 5 4 4 4 4 3 3 2 2 2 2 1 1 1 1 1 1 1 1
0 0 0 0 0 0 0 1 2 3 4 5 5 6 7 7 7 6 5 4 5 8 11 11 10 10 10 10 9 7 6 5 5 4 3 3 2 2 2 2 1 1 1 1 1 1 1 1 1
0 0 0 0 0 0 0 1 2 3 5 5 5 5 5 5 5 5 5 4 4 7 10 11 10 10 10 10 8 7 6 6 5 4 3 2 2 2 2 2 1 1 1 1 1 1 2 2 2
Wind_Speed
9 6 3 1 2 3 2 1 3 3 4 6 9 10 9 7 5 6 3 8 10 8 6 8 9 10 11 11 12 12 12 12 12 12 12 12 12 12 12 12 12 12 12 11 11 11 11 10 10
6 5 2 1 3 2 1 1 4 5 6 7 9 10 9 7 7 8 5 9 10 8 5 7 9 9 9 10 11 12 12 12 12 12 12 12 12 12 11 11 11 11 11 11 10 10 10 10 9
6 4 1 1 1 3 2 2 4 6 6 6 6 6 6 5 6 6 8 12 9 7 5 7 10 9 9 10 12 13 13 13 12 12 11 11 11 11 11 10 10 10 10 10 10 10 9 9 9
2 1 1 2 1 3 5 4 5 7 6 7 8 7 5 4 5 8 13 13 11 7 5 7 11 10 10 11 12 13 13 12 12 11 11 10 10 10 10 9 9 9 9 9 9 9 9 8 8
1 1 2 1 1 2 4 6 5 6 4 8 10 8 5 4 10 14 13 12 11 7 5 7 11 11 10 11 12 13 12 12 11 10 10 9 9 9 9 8 8 8 8 8 8 8 8 7 7
1 1 2 1 2 3 4 6 7 8 10 10 10 8 4 6 11 12 12 10 10 9 6 6 10 11 11 11 12 12 12 11 10 9 9 8 8 8 8 8 8 7 7 7 7 7 7 6 5
2 1 1 2 2 3 4 5 7 8 8 7 8 7 4 6 8 11 11 10 9 8 7 5 5 7 10 10 10 11 11 10 9 8 8 7 7 7 7 6 6 6 6 6 6 6 6 5 5
3 2 1 1 2 2 3 5 7 8 7 9 7 7 6 7 9 11 10 9 8 7 6 5 5 4 4 5 9 10 10 9 8 7 7 6 6 6 6 5 5 6 6 6 6 6 5 4 4
2 2 1 2 3 3 4 7 5 6 8 6 5 7 10 12 12 11 9 7 6 7 5 5 5 4 4 4 6 7 8 7 6 5 6 5 2 2 3 4 5 5 6 6 6 5 4 3 3
4 2 5 4 5 5 4 7 6 6 8 8 9 10 12 12 11 12 11 9 8 7 6 5 6 5 5 4 3 2 3 3 2 2 2 2 2 1 2 3 4 4 4 5 4 4 3 2 1
5 6 4 3 4 5 5 5 4 8 5 8 13 13 12 12 11 10 10 10 9 8 7 6 6 5 5 3 3 2 1 2 2 3 2 2 2 1 1 1 1 1 2 1 2 1 1 1 1
4 4 3 3 4 4 5 5 5 5 7 11 14 14 12 12 11 11 10 9 8 8 8 6 6 5 4 3 3 3 2 2 2 2 3 3 2 1 1 1 1 1 0 1 1 1 1 1 1
3 2 3 3 3 5 7 5 6 5 9 11 13 13 12 12 10 9 9 8 8 8 7 7 6 5 4 4 3 3 3 3 3 2 2 3 2 2 1 1 1 1 1 1 1 1 1 1 1
3 3 1 3 3 6 9 5 6 6 9 11 12 11 11 12 11 9 9 9 8 8 7 6 7 6 5 4 3 3 3 3 3 2 2 3 2 2 2 1 1 1 1 1 1 1 1 1 1
0 2 1 2 3 4 7 2 6 10 11 11 10 11 12 11 12 12 11 10 9 8 7 7 7 6 5 5 4 3 3 3 2 2 2 2 2 2 2 1 1 1 1 1 1 1 1 0 0
3 2 1 3 3 3 6 5 6 10 11 10 9 10 10 10 11 10 11 10 9 8 7 7 7 6 5 4 4 3 3 3 2 2 2 2 2 2 2 1 1 1 1 1 1 1 1 1 0
3 0 2 4 2 3 5 4 5 9 11 10 9 9 10 9 9 9 11 10 9 9 8 7 6 6 5 4 3 3 3 3 2 2 2 2 3 3 2 1 1 1 1 1 1 1 1 0 1
3 3 3 4 3 3 4 5 7 8 9 9 8 8 9 10 10 10 10 10 10 9 8 7 6 5 5 3 3 2 2 1 2 2 2 3 2 3 3 2 1 1 1 1 0 0 0 0 1
5 4 4 6 3 3 4 4 8 9 8 9 8 9 9 9 8 9 10 11 10 8 8 7 6 5 4 3 3 2 2 1 1 1 2 2 2 3 3 2 1 1 1 1 1 1 1 1 0
5 4 4 4 2 3 3 3 6 8 11 12 12 11 10 9 8 9 9 9 9 9 8 7 6 5 5 3 3 2 2 2 1 1 1 2 2 3 3 3 2 2 2 1 1 1 1 0 1
5 5 5 4 3 1 3 1 2 3 4 7 9 10 10 13 13 11 10 9 9 9 8 7 6 5 5 4 3 2 2 2 1 1 0 1 2 2 2 2 2 2 2 2 1 2 2 1 1
5 7 6 4 2 1 2 2 4 5 4 7 9 9 10 11 11 11 11 10 10 9 8 7 6 5 5 5 4 5 4 3 2 2 1 1 1 1 2 2 2 2 1 1 1 1 1 2 0
6 5 3 2 3 0 1 2 6 2 5 7 9 11 11 11 12 12 12 11 10 9 8 7 6 5 5 5 5 5 3 2 2 2 2 1 0 1 1 2 2 1 1 1 1 1 1 1 1
3 3 5 5 5 1 3 3 5 6 10 9 8 10 11 11 11 11 10 9 9 8 8 7 6 5 5 5 5 5 5 4 3 2 2 1 0 0 1 1 1 1 1 1 1 1 1 1 1
3 6 5 5 4 5 4 2 8 8 9 11 11 11 10 11 11 10 11 10 10 10 9 8 7 6 5 5 5 5 5 5 5 4 3 2 1 0 0 1 1 1 1 1 1 1 1 1 1
2 8 7 4 3 5 3 4 7 6 5 6 7 8 10 10 10 10 11 11 11 11 10 9 8 6 5 5 5 4 4 3 3 3 3 3 2 2 1 1 1 1 1 1 1 1 0 1 0
3 3 8 7 2 1 3 4 6 2 3 5 5 7 9 10 10 10 10 10 10 10 10 10 9 7 6 6 5 4 4 4 3 3 3 2 2 2 2 1 1 1 1 1 1 1 0 1 1
5 6 6 5 4 2 3 3 4 3 3 4 6 7 7 8 8 8 8 9 9 10 9 9 9 8 7 6 5 5 4 4 4 3 3 3 2 2 2 1 1 1 1 1 1 1 0 1 1
0 2 5 5 5 5 2 7 6 7 5 7 7 6 7 9 9 8 8 8 9 8 8 8 8 7 6 6 5 4 4 4 3 3 3 3 2 2 2 2 2 1 1 1 1 0 0 0 1
4 4 7 5 3 4 4 8 5 5 4 6 7 7 6 8 8 8 7 8 7 8 8 8 7 7 7 6 5 5 4 4 3 3 3 3 3 3 3 2 2 2 1 1 1 1 0 0 1
Wind_Direction
166 164 166 174 34 34 34 72 103 61 52 58 73 80 78 63 87 125 158 140 138 143 145 138 133 131 130 129 128 126 121 117 117 118 118 120 122 122 123 124 126 129 131 132 131 131 133 135 138
165 168 171 50 74 55 3 93 79 89 125 113 83 79 75 70 87 113 130 142 140 140 144 140 134 131 131 132 135 133 128 124 122 121 120 122 122 124 124 125 128 132 133 136 137 138 139 140 141
178 186 159 64 111 162 155 129 105 100 103 100 89 67 72 99 110 130 148 145 138 137 142 145 135 130 129 133 136 135 133 130 125 123 121 121 123 123 127 129 132 136 140 144 146 146 145 147 151
175 137 25 73 169 183 156 157 114 102 79 77 93 72 66 98 123 136 140 141 138 139 145 145 137 132 130 135 136 136 135 132 130 128 126 126 128 130 133 135 137 141 146 150 152 155 155 158 161
89 88 35 16 224 124 135 144 128 106 96 95 94 92 82 81 115 130 138 140 140 142 145 144 139 136 132 134 137 138 138 135 132 131 130 130 135 139 138 143 146 150 154 158 161 162 162 166 171
86 74 62 33 63 83 115 123 104 104 111 108 104 105 106 123 127 139 140 140 142 144 143 141 143 139 138 138 139 140 140 138 136 135 134 133 134 141 146 151 154 158 165 170 171 167 170 177 184
134 103 186 161 95 86 105 102 108 123 123 120 123 108 123 135 140 138 138 135 136 140 140 138 144 143 143 143 144 145 143 143 141 139 138 138 139 143 149 153 156 161 167 172 177 179 182 191 201
165 106 322 98 103 94 111 93 113 113 112 124 124 127 151 160 141 131 132 131 133 138 142 146 146 143 143 147 150 151 150 149 147 142 142 142 142 148 152 153 157 163 171 176 180 186 194 201 208
133 72 236 200 150 159 116 97 94 93 103 107 102 128 150 145 133 125 125 124 134 141 147 148 147 148 151 155 156 157 156 154 148 141 142 135 109 116 144 153 155 163 174 178 183 189 194 206 215
140 176 223 202 166 159 139 124 120 101 98 98 104 119 137 138 138 137 142 146 150 157 160 155 152 155 159 162 148 147 146 143 130 119 121 107 96 111 135 150 156 156 172 178 180 192 202 216 224
167 189 210 195 175 151 139 129 113 119 120 144 144 146 147 141 144 148 151 155 162 165 161 162 161 159 155 149 144 146 133 129 125 121 124 113 100 92 96 96 133 138 165 161 159 169 201 207 212
178 218 178 183 171 141 143 131 116 126 156 157 152 151 151 151 153 158 158 158 155 154 159 158 157 151 149 141 148 150 146 142 135 135 134 123 119 127 134 110 107 86 103 137 136 152 168 221 222
158 188 169 171 167 134 121 128 122 133 144 147 149 150 155 155 157 157 156 155 150 153 157 157 153 150 150 142 149 145 151 147 147 142 137 135 139 149 147 135 124 123 136 147 143 159 194 209 225
196 159 153 169 154 135 129 136 118 156 146 146 151 157 163 159 157 152 149 152 155 156 155 153 153 154 144 141 142 145 150 147 140 140 145 142 142 145 145 140 138 134 147 163 159 177 198 207 207
65 94 317 210 155 150 125 115 157 165 149 152 157 157 158 160 157 158 160 159 159 156 152 152 152 148 141 143 150 140 148 146 145 146 145 141 136 143 147 142 150 161 148 119 116 93 35 357 298
18 65 254 263 169 167 123 181 191 165 152 157 159 155 152 157 160 158 157 156 156 150 149 154 148 143 141 136 136 139 146 150 157 156 150 146 135 137 132 137 165 176 132 115 114 89 69 2 334
15 355 253 274 210 161 129 187 199 170 157 159 158 153 152 154 156 158 160 157 156 151 148 145 143 145 145 138 132 134 137 149 161 154 156 157 152 150 144 146 171 160 117 99 122 100 122 67 301
257 258 262 250 228 136 143 176 173 176 162 160 156 151 153 161 167 165 161 156 152 149 146 144 144 146 141 131 120 115 117 136 143 150 162 158 158 152 149 152 171 156 121 94 78 107 102 211 243
229 238 254 264 228 153 171 179 180 173 170 167 162 161 165 171 168 158 157 154 147 146 145 149 146 150 144 138 140 141 150 146 138 162 164 162 160 157 156 170 179 169 162 189 199 144 91 345 65
244 250 256 288 256 143 157 198 190 179 178 174 172 176 170 163 157 160 158 157 154 154 154 153 156 157 158 160 158 152 152 159 154 146 134 150 154 164 168 169 181 174 162 161 157 131 112 326 96
246 214 214 225 300 38 98 350 203 205 167 168 173 176 174 170 166 163 162 162 159 160 162 161 163 161 163 155 132 116 93 80 77 79 119 167 153 157 166 166 170 167 159 168 177 159 143 168 324
246 230 213 199 113 260 129 216 259 205 193 181 178 177 180 172 165 164 165 165 165 166 161 159 159 160 161 155 148 148 151 159 179 175 171 175 159 158 157 154 153 157 156 156 176 149 146 142 214
223 224 197 158 140 73 3 140 271 202 197 204 192 184 177 171 169 168 167 167 167 165 162 161 154 157 159 156 157 152 156 161 150 137 133 134 103 131 140 129 136 146 153 148 133 119 125 142 162
188 54 35 53 74 3 254 167 258 212 203 204 198 191 177 172 173 169 166 163 162 163 159 156 155 162 162 159 156 158 159 152 139 135 141 150 135 99 108 114 128 144 145 151 161 138 123 131 131
80 83 34 5 19 260 270 191 243 230 204 192 195 192 178 167 167 165 163 166 167 165 163 161 161 167 168 164 162 162 159 153 157 160 162 157 154 152 164 118 129 140 148 148 127 105 96 102 118
184 133 151 184 217 275 313 243 259 249 201 177 170 166 160 159 162 163 166 169 169 168 165 164 167 170 169 166 165 161 157 157 162 161 157 167 179 181 166 147 136 125 121 113 110 103 116 71 66
158 167 162 136 161 256 284 291 313 3 94 131 151 152 160 161 162 163 166 167 167 167 170 170 169 170 173 171 162 160 162 159 158 154 150 158 166 160 149 147 133 126 115 114 116 101 50 44 8
160 153 95 111 147 245 287 268 237 235 189 157 151 154 162 156 157 160 162 168 167 168 167 168 169 171 172 166 164 162 160 159 154 147 153 159 161 152 150 151 139 134 125 108 110 110 68 58 340
131 106 114 123 149 152 240 267 232 208 180 162 164 157 159 165 163 165 169 169 166 159 162 165 168 163 162 164 161 158 159 156 148 152 162 161 165 166 169 174 154 150 156 159 118 172 121 58 330
162 174 143 145 197 159 170 261 269 191 170 150 146 146 148 157 159 159 162 158 157 162 163 165 165 164 168 166 160 160 157 148 147 160 180 175 173 175 182 175 157 169 181 200 174 197 211 185 293